QPF
0.04 0.04 0.04 0.04 0.03 0.02 0.04 0.05 0.05 0.07 0.09 0.10 0.10 0.07 0.06 0.05 0.05 0.04 0.03 0.03 0.04 0.04 0.05 0.06 0.06 0.08 0.09 0.17 0.25 0.10 0.04 0.04 0.03 0.02 0.02 0.02 0.03 0.02 0.01 0.01 0.02 0.02 0.01
0.05 0.06 0.05 0.06 0.04 0.04 0.05 0.06 0.06 0.11 0.14 0.12 0.12 0.11 0.09 0.05 0.06 0.05 0.05 0.05 0.04 0.05 0.06 0.08 0.08 0.09 0.12 0.27 0.25 0.09 0.04 0.03 0.03 0.03 0.02 0.01 0.03 0.03 0.02 0.02 0.02 0.02 0.01
0.08 0.09 0.07 0.06 0.05 0.05 0.07 0.08 0.07 0.10 0.13 0.12 0.11 0.11 0.10 0.08 0.06 0.06 0.05 0.04 0.05 0.04 0.06 0.09 0.08 0.11 0.17 0.26 0.16 0.08 0.05 0.02 0.03 0.03 0.02 0.03 0.04 0.04 0.04 0.03 0.04 0.02 0.01
0.06 0.09 0.08 0.06 0.05 0.05 0.07 0.09 0.09 0.10 0.11 0.09 0.08 0.09 0.08 0.08 0.07 0.05 0.04 0.05 0.07 0.07 0.12 0.11 0.12 0.16 0.20 0.19 0.14 0.11 0.06 0.03 0.03 0.03 0.02 0.02 0.02 0.01 0.02 0.02 0.04 0.03 0.01
0.05 0.08 0.09 0.10 0.08 0.08 0.07 0.06 0.08 0.11 0.12 0.09 0.06 0.07 0.05 0.05 0.05 0.04 0.07 0.07 0.08 0.08 0.16 0.14 0.15 0.17 0.18 0.18 0.16 0.14 0.10 0.07 0.04 0.03 0.02 0.01 0.01 0.01 0.01 0.01 0.02 0.02 0.01
0.05 0.06 0.06 0.08 0.08 0.09 0.07 0.07 0.09 0.10 0.10 0.09 0.05 0.05 0.04 0.03 0.04 0.06 0.08 0.06 0.06 0.06 0.14 0.18 0.17 0.15 0.13 0.13 0.15 0.12 0.10 0.10 0.08 0.06 0.05 0.04 0.03 0.02 0.02 0.02 0.02 0.01 0.01
0.07 0.07 0.05 0.07 0.08 0.09 0.08 0.07 0.07 0.08 0.08 0.07 0.08 0.08 0.05 0.03 0.03 0.04 0.03 0.04 0.04 0.05 0.09 0.15 0.16 0.13 0.10 0.07 0.07 0.07 0.08 0.09 0.08 0.05 0.04 0.04 0.04 0.05 0.05 0.03 0.02 0.01 0.01
0.07 0.06 0.08 0.09 0.08 0.08 0.08 0.08 0.09 0.09 0.07 0.07 0.08 0.09 0.07 0.06 0.05 0.03 0.03 0.04 0.05 0.05 0.06 0.07 0.08 0.09 0.08 0.09 0.06 0.04 0.06 0.08 0.08 0.07 0.05 0.05 0.04 0.04 0.03 0.02 0.02 0.02 0.02
0.06 0.06 0.07 0.09 0.08 0.07 0.08 0.09 0.09 0.09 0.09 0.07 0.06 0.08 0.09 0.09 0.06 0.05 0.03 0.04 0.04 0.06 0.07 0.05 0.04 0.08 0.08 0.08 0.07 0.05 0.04 0.05 0.06 0.08 0.08 0.07 0.06 0.04 0.04 0.03 0.02 0.02 0.03
0.06 0.06 0.07 0.08 0.08 0.06 0.07 0.06 0.07 0.08 0.09 0.09 0.08 0.07 0.07 0.08 0.09 0.07 0.06 0.05 0.04 0.08 0.08 0.05 0.05 0.07 0.07 0.06 0.06 0.04 0.02 0.02 0.04 0.06 0.08 0.07 0.07 0.06 0.05 0.04 0.02 0.03 0.04
0.05 0.04 0.07 0.08 0.06 0.06 0.07 0.07 0.08 0.07 0.07 0.08 0.08 0.08 0.07 0.09 0.09 0.09 0.09 0.09 0.07 0.08 0.07 0.06 0.06 0.06 0.05 0.04 0.04 0.04 0.03 0.02 0.02 0.03 0.05 0.06 0.06 0.06 0.05 0.05 0.04 0.04 0.05
0.05 0.05 0.06 0.08 0.06 0.05 0.07 0.08 0.07 0.08 0.07 0.07 0.08 0.08 0.10 0.08 0.08 0.09 0.09 0.09 0.09 0.09 0.08 0.08 0.05 0.04 0.04 0.03 0.03 0.03 0.03 0.03 0.03 0.02 0.02 0.03 0.05 0.06 0.08 0.08 0.07 0.08 0.10
0.06 0.06 0.07 0.09 0.06 0.05 0.05 0.07 0.10 0.14 0.10 0.07 0.07 0.08 0.07 0.07 0.08 0.08 0.07 0.07 0.07 0.07 0.07 0.05 0.04 0.04 0.05 0.05 0.04 0.04 0.03 0.03 0.03 0.03 0.03 0.03 0.04 0.05 0.08 0.09 0.08 0.08 0.10
0.04 0.06 0.06 0.08 0.06 0.04 0.04 0.06 0.06 0.07 0.07 0.05 0.04 0.06 0.06 0.06 0.07 0.08 0.08 0.09 0.09 0.08 0.08 0.06 0.04 0.06 0.05 0.05 0.05 0.06 0.04 0.04 0.03 0.03 0.03 0.03 0.03 0.04 0.06 0.06 0.06 0.06 0.08
0.04 0.05 0.05 0.05 0.04 0.04 0.04 0.05 0.05 0.04 0.04 0.04 0.03 0.04 0.05 0.06 0.08 0.07 0.07 0.08 0.08 0.07 0.07 0.06 0.06 0.06 0.06 0.05 0.05 0.05 0.05 0.05 0.05 0.04 0.04 0.04 0.04 0.05 0.06 0.06 0.08 0.09 0.09
0.05 0.05 0.05 0.04 0.04 0.03 0.04 0.04 0.04 0.04 0.04 0.04 0.06 0.07 0.08 0.09 0.09 0.06 0.06 0.07 0.07 0.08 0.07 0.08 0.08 0.07 0.05 0.03 0.06 0.05 0.06 0.07 0.06 0.05 0.05 0.04 0.04 0.04 0.05 0.05 0.06 0.07 0.07
0.03 0.03 0.03 0.03 0.04 0.04 0.04 0.04 0.03 0.04 0.05 0.08 0.08 0.07 0.07 0.07 0.07 0.07 0.07 0.09 0.10 0.10 0.09 0.07 0.07 0.07 0.05 0.04 0.04 0.05 0.04 0.04 0.04 0.05 0.04 0.03 0.04 0.05 0.05 0.06 0.06 0.06 0.06
0.02 0.02 0.03 0.03 0.03 0.03 0.03 0.03 0.03 0.02 0.03 0.06 0.06 0.06 0.05 0.05 0.05 0.06 0.08 0.10 0.11 0.12 0.11 0.09 0.09 0.07 0.06 0.06 0.06 0.05 0.04 0.03 0.03 0.04 0.03 0.03 0.03 0.04 0.05 0.06 0.06 0.06 0.06
0.02 0.02 0.02 0.02 0.02 0.03 0.04 0.03 0.02 0.01 0.02 0.03 0.04 0.06 0.05 0.05 0.05 0.06 0.07 0.09 0.11 0.11 0.09 0.06 0.05 0.06 0.07 0.07 0.07 0.06 0.04 0.04 0.03 0.04 0.04 0.03 0.03 0.04 0.05 0.05 0.05 0.05 0.06
0.02 0.02 0.01 0.02 0.02 0.03 0.04 0.03 0.02 0.02 0.03 0.03 0.05 0.06 0.04 0.05 0.06 0.07 0.06 0.08 0.10 0.10 0.08 0.06 0.06 0.07 0.07 0.06 0.05 0.05 0.04 0.05 0.05 0.04 0.04 0.04 0.03 0.04 0.04 0.04 0.04 0.04 0.05
0.03 0.02 0.03 0.02 0.03 0.03 0.04 0.04 0.02 0.03 0.04 0.04 0.05 0.04 0.03 0.03 0.04 0.06 0.06 0.08 0.10 0.10 0.07 0.07 0.06 0.07 0.06 0.05 0.05 0.05 0.05 0.06 0.06 0.04 0.05 0.05 0.03 0.02 0.02 0.02 0.02 0.03 0.02
0.03 0.03 0.03 0.03 0.04 0.03 0.04 0.04 0.03 0.03 0.04 0.06 0.06 0.05 0.03 0.03 0.03 0.04 0.03 0.03 0.05 0.05 0.05 0.05 0.04 0.05 0.05 0.05 0.05 0.05 0.05 0.04 0.04 0.04 0.04 0.03 0.02 0.01 0.01 0.01 0.01 0.02 0.01
0.03 0.02 0.02 0.02 0.03 0.04 0.05 0.04 0.03 0.04 0.05 0.06 0.06 0.06 0.04 0.03 0.02 0.01 0.02 0.01 0.02 0.02 0.03 0.03 0.04 0.04 0.04 0.04 0.05 0.05 0.04 0.04 0.04 0.03 0.03 0.02 0.01 0.01 0.01 0.01 0.01 0.01 0.01
0.02 0.02 0.02 0.02 0.02 0.05 0.06 0.04 0.04 0.04 0.06 0.07 0.07 0.06 0.06 0.04 0.02 0.02 0.02 0.03 0.03 0.03 0.03 0.02 0.02 0.02 0.02 0.02 0.04 0.04 0.04 0.03 0.02 0.02 0.02 0.02 0.02 0.01 0.01 0.01 0.01 0.01 0.01
0.02 0.02 0.02 0.02 0.02 0.04 0.05 0.04 0.04 0.04 0.04 0.04 0.04 0.05 0.06 0.05 0.04 0.03 0.04 0.05 0.05 0.04 0.03 0.02 0.02 0.02 0.02 0.02 0.03 0.03 0.03 0.03 0.02 0.02 0.02 0.02 0.02 0.02 0.02 0.02 0.01 0.01 0.02
0.03 0.03 0.03 0.03 0.03 0.03 0.03 0.04 0.03 0.02 0.02 0.03 0.03 0.03 0.03 0.04 0.06 0.06 0.05 0.07 0.05 0.05 0.03 0.03 0.02 0.01 0.01 0.01 0.02 0.02 0.02 0.03 0.03 0.02 0.03 0.03 0.02 0.03 0.03 0.03 0.03 0.03 0.03
MSLP
1015.73 1015.99 1016.17 1016.29 1016.36 1016.41 1016.48 1016.56 1016.65 1016.73 1016.80 1016.82 1016.82 1016.79 1016.79 1016.84 1016.99 1017.26 1017.63 1018.08 1018.57 1019.04 1019.46 1019.79 1020.02 1020.17 1020.26 1020.34 1020.43 1020.56 1020.73 1020.94 1021.18 1021.42 1021.65 1021.85 1022.04 1022.21 1022.36 1022.51 1022.65 1022.78 1022.89
1015.82 1016.05 1016.22 1016.32 1016.38 1016.44 1016.51 1016.60 1016.71 1016.81 1016.89 1016.93 1016.94 1016.92 1016.91 1016.94 1017.05 1017.26 1017.58 1017.97 1018.41 1018.86 1019.27 1019.60 1019.86 1020.05 1020.19 1020.30 1020.41 1020.54 1020.70 1020.88 1021.09 1021.30 1021.51 1021.71 1021.90 1022.07 1022.23 1022.38 1022.52 1022.64 1022.74
1015.84 1016.04 1016.18 1016.27 1016.35 1016.43 1016.53 1016.65 1016.79 1016.93 1017.04 1017.10 1017.12 1017.10 1017.07 1017.07 1017.12 1017.26 1017.49 1017.80 1018.17 1018.56 1018.94 1019.28 1019.57 1019.80 1019.98 1020.14 1020.28 1020.42 1020.58 1020.76 1020.94 1021.12 1021.31 1021.49 1021.67 1021.84 1022.01 1022.16 1022.30 1022.43 1022.54
1015.77 1015.92 1016.05 1016.15 1016.25 1016.37 1016.52 1016.69 1016.87 1017.05 1017.19 1017.28 1017.30 1017.28 1017.23 1017.18 1017.16 1017.22 1017.35 1017.57 1017.84 1018.16 1018.49 1018.82 1019.12 1019.38 1019.61 1019.82 1020.00 1020.18 1020.35 1020.53 1020.70 1020.87 1021.03 1021.21 1021.38 1021.55 1021.72 1021.88 1022.04 1022.17 1022.29
1015.59 1015.72 1015.84 1015.96 1016.09 1016.26 1016.46 1016.68 1016.91 1017.12 1017.29 1017.40 1017.43 1017.40 1017.33 1017.24 1017.16 1017.14 1017.17 1017.28 1017.46 1017.68 1017.96 1018.24 1018.53 1018.81 1019.08 1019.33 1019.57 1019.78 1019.99 1020.18 1020.35 1020.52 1020.69 1020.85 1021.02 1021.19 1021.37 1021.54 1021.71 1021.87 1022.00
1015.35 1015.46 1015.58 1015.72 1015.90 1016.11 1016.36 1016.62 1016.88 1017.11 1017.29 1017.41 1017.45 1017.42 1017.34 1017.22 1017.11 1017.02 1016.97 1016.98 1017.06 1017.19 1017.37 1017.60 1017.85 1018.13 1018.41 1018.70 1018.97 1019.24 1019.48 1019.70 1019.90 1020.08 1020.25 1020.42 1020.59 1020.77 1020.95 1021.14 1021.33 1021.49 1021.65
1015.07 1015.16 1015.30 1015.47 1015.69 1015.95 1016.22 1016.50 1016.77 1017.01 1017.19 1017.30 1017.35 1017.33 1017.26 1017.15 1017.02 1016.89 1016.79 1016.73 1016.71 1016.74 1016.83 1016.97 1017.16 1017.40 1017.67 1017.96 1018.27 1018.57 1018.85 1019.11 1019.34 1019.54 1019.73 1019.90 1020.08 1020.27 1020.46 1020.65 1020.84 1021.03 1021.19
1014.78 1014.88 1015.03 1015.24 1015.49 1015.77 1016.06 1016.34 1016.60 1016.81 1016.98 1017.09 1017.14 1017.14 1017.10 1017.02 1016.91 1016.79 1016.67 1016.56 1016.46 1016.40 1016.39 1016.42 1016.53 1016.70 1016.93 1017.20 1017.51 1017.83 1018.14 1018.42 1018.68 1018.91 1019.12 1019.31 1019.49 1019.67 1019.86 1020.06 1020.26 1020.44 1020.61
1014.51 1014.61 1014.79 1015.02 1015.30 1015.59 1015.87 1016.14 1016.36 1016.54 1016.68 1016.78 1016.85 1016.89 1016.90 1016.88 1016.83 1016.75 1016.64 1016.51 1016.36 1016.22 1016.10 1016.03 1016.03 1016.11 1016.27 1016.49 1016.78 1017.09 1017.41 1017.72 1018.00 1018.25 1018.47 1018.66 1018.84 1019.02 1019.20 1019.38 1019.56 1019.74 1019.91
1014.22 1014.35 1014.55 1014.80 1015.09 1015.38 1015.65 1015.89 1016.07 1016.22 1016.34 1016.43 1016.52 1016.60 1016.68 1016.74 1016.78 1016.77 1016.70 1016.57 1016.40 1016.19 1015.99 1015.82 1015.70 1015.68 1015.75 1015.91 1016.15 1016.43 1016.75 1017.06 1017.35 1017.60 1017.82 1018.01 1018.18 1018.34 1018.50 1018.66 1018.82 1018.98 1019.13
1013.91 1014.05 1014.27 1014.53 1014.83 1015.11 1015.37 1015.58 1015.73 1015.85 1015.95 1016.05 1016.16 1016.30 1016.46 1016.61 1016.74 1016.81 1016.80 1016.70 1016.52 1016.28 1016.01 1015.75 1015.54 1015.42 1015.41 1015.50 1015.68 1015.94 1016.23 1016.53 1016.82 1017.07 1017.28 1017.46 1017.60 1017.74 1017.86 1017.99 1018.12 1018.25 1018.37
1013.54 1013.68 1013.90 1014.17 1014.47 1014.75 1015.00 1015.19 1015.33 1015.44 1015.54 1015.65 1015.81 1016.00 1016.23 1016.47 1016.68 1016.83 1016.88 1016.82 1016.65 1016.40 1016.09 1015.78 1015.52 1015.33 1015.26 1015.29 1015.43 1015.66 1015.93 1016.21 1016.48 1016.72 1016.92 1017.08 1017.20 1017.30 1017.40 1017.48 1017.58 1017.66 1017.75
1013.10 1013.22 1013.43 1013.70 1013.99 1014.28 1014.53 1014.72 1014.87 1014.99 1015.11 1015.25 1015.44 1015.69 1015.97 1016.28 1016.55 1016.76 1016.87 1016.85 1016.71 1016.47 1016.17 1015.85 1015.57 1015.37 1015.27 1015.29 1015.41 1015.62 1015.88 1016.15 1016.41 1016.64 1016.83 1016.96 1017.06 1017.14 1017.20 1017.25 1017.30 1017.35 1017.40
1012.61 1012.70 1012.88 1013.13 1013.42 1013.71 1013.98 1014.20 1014.38 1014.53 1014.68 1014.86 1015.09 1015.36 1015.69 1016.03 1016.34 1016.59 1016.73 1016.75 1016.65 1016.45 1016.19 1015.91 1015.66 1015.49 1015.42 1015.46 1015.60 1015.82 1016.09 1016.36 1016.62 1016.84 1017.01 1017.14 1017.22 1017.28 1017.31 1017.34 1017.36 1017.38 1017.38
1012.15 1012.17 1012.31 1012.54 1012.82 1013.12 1013.41 1013.67 1013.90 1014.09 1014.29 1014.51 1014.76 1015.06 1015.39 1015.73 1016.04 1016.30 1016.46 1016.51 1016.46 1016.31 1016.12 1015.92 1015.76 1015.67 1015.68 1015.78 1015.97 1016.23 1016.52 1016.81 1017.07 1017.29 1017.46 1017.58 1017.66 1017.70 1017.73 1017.74 1017.75 1017.74 1017.72
1011.79 1011.76 1011.85 1012.05 1012.32 1012.62 1012.94 1013.24 1013.52 1013.76 1014.00 1014.25 1014.52 1014.81 1015.12 1015.43 1015.72 1015.95 1016.10 1016.17 1016.16 1016.09 1015.99 1015.90 1015.86 1015.89 1016.01 1016.21 1016.47 1016.78 1017.11 1017.42 1017.69 1017.91 1018.08 1018.20 1018.28 1018.34 1018.37 1018.39 1018.40 1018.39 1018.35
1011.68 1011.59 1011.63 1011.78 1012.03 1012.34 1012.68 1013.02 1013.33 1013.62 1013.90 1014.16 1014.42 1014.69 1014.96 1015.21 1015.44 1015.62 1015.75 1015.82 1015.85 1015.85 1015.85 1015.89 1015.98 1016.15 1016.39 1016.69 1017.04 1017.41 1017.77 1018.09 1018.37 1018.59 1018.76 1018.89 1018.98 1019.05 1019.10 1019.15 1019.17 1019.17 1019.13
1011.88 1011.75 1011.74 1011.86 1012.09 1012.39 1012.72 1013.08 1013.41 1013.73 1014.02 1014.28 1014.53 1014.76 1014.97 1015.15 1015.31 1015.43 1015.52 1015.59 1015.64 1015.71 1015.80 1015.96 1016.17 1016.46 1016.82 1017.21 1017.63 1018.04 1018.41 1018.74 1019.01 1019.21 1019.37 1019.49 1019.60 1019.69 1019.77 1019.84 1019.90 1019.93 1019.91
1012.42 1012.27 1012.24 1012.33 1012.52 1012.80 1013.12 1013.47 1013.80 1014.12 1014.41 1014.66 1014.87 1015.05 1015.20 1015.32 1015.41 1015.47 1015.52 1015.57 1015.64 1015.75 1015.92 1016.16 1016.47 1016.85 1017.29 1017.74 1018.20 1018.61 1018.98 1019.28 1019.52 1019.69 1019.83 1019.94 1020.04 1020.15 1020.26 1020.37 1020.46 1020.53 1020.55
1013.26 1013.12 1013.09 1013.16 1013.32 1013.56 1013.85 1014.16 1014.48 1014.78 1015.04 1015.27 1015.45 1015.59 1015.68 1015.74 1015.77 1015.78 1015.79 1015.83 1015.90 1016.03 1016.25 1016.54 1016.91 1017.34 1017.81 1018.28 1018.72 1019.12 1019.45 1019.69 1019.87 1020.00 1020.09 1020.18 1020.27 1020.39 1020.52 1020.66 1020.78 1020.89 1020.94
1014.29 1014.20 1014.19 1014.25 1014.39 1014.59 1014.83 1015.10 1015.37 1015.63 1015.87 1016.07 1016.22 1016.33 1016.39 1016.42 1016.41 1016.39 1016.37 1016.38 1016.45 1016.59 1016.81 1017.11 1017.49 1017.92 1018.38 1018.82 1019.23 1019.57 1019.82 1020.00 1020.10 1020.17 1020.21 1020.26 1020.33 1020.43 1020.56 1020.72 1020.87 1020.99 1021.07
1015.41 1015.38 1015.40 1015.47 1015.58 1015.74 1015.93 1016.15 1016.37 1016.59 1016.79 1016.97 1017.11 1017.22 1017.27 1017.29 1017.27 1017.23 1017.21 1017.20 1017.26 1017.38 1017.58 1017.85 1018.21 1018.60 1019.00 1019.39 1019.72 1019.98 1020.16 1020.26 1020.28 1020.28 1020.26 1020.26 1020.29 1020.37 1020.49 1020.63 1020.78 1020.91 1020.99
1016.45 1016.50 1016.57 1016.65 1016.75 1016.88 1017.02 1017.19 1017.37 1017.55 1017.74 1017.91 1018.06 1018.17 1018.25 1018.28 1018.28 1018.26 1018.22 1018.22 1018.24 1018.33 1018.49 1018.72 1019.02 1019.34 1019.67 1019.98 1020.24 1020.42 1020.52 1020.54 1020.50 1020.43 1020.36 1020.30 1020.29 1020.33 1020.41 1020.52 1020.64 1020.73 1020.78
1017.32 1017.45 1017.57 1017.68 1017.78 1017.88 1017.99 1018.12 1018.27 1018.44 1018.62 1018.80 1018.98 1019.13 1019.25 1019.32 1019.36 1019.36 1019.34 1019.32 1019.33 1019.38 1019.49 1019.66 1019.87 1020.12 1020.38 1020.61 1020.79 1020.91 1020.95 1020.92 1020.84 1020.72 1020.60 1020.49 1020.43 1020.41 1020.43 1020.47 1020.53 1020.56 1020.56
1017.99 1018.19 1018.35 1018.49 1018.60 1018.70 1018.80 1018.91 1019.05 1019.22 1019.41 1019.62 1019.84 1020.04 1020.22 1020.34 1020.42 1020.46 1020.45 1020.43 1020.42 1020.43 1020.48 1020.59 1020.73 1020.91 1021.09 1021.27 1021.40 1021.48 1021.49 1021.43 1021.32 1021.17 1021.02 1020.87 1020.75 1020.66 1020.61 1020.57 1020.53 1020.48 1020.38
1018.47 1018.72 1018.94 1019.11 1019.24 1019.35 1019.46 1019.58 1019.72 1019.90 1020.12 1020.37 1020.63 1020.89 1021.12 1021.30 1021.42 1021.49 1021.50 1021.47 1021.44 1021.41 1021.41 1021.46 1021.54 1021.66 1021.79 1021.93 1022.03 1022.10 1022.10 1022.05 1021.93 1021.78 1021.60 1021.42 1021.24 1021.08 1020.94 1020.80 1020.66 1020.49 1020.30
Thickness
5753 5752 5751 5750 5752 5751 5751 5749 5749 5749 5749 5749 5750 5749 5749 5748 5748 5746 5741 5736 5734 5733 5731 5730 5728 5727 5726 5724 5722 5720 5718 5717 5715 5714 5713 5711 5710 5709 5708 5706 5705 5704 5703
5751 5751 5750 5750 5750 5750 5750 5749 5749 5748 5749 5749 5748 5748 5747 5748 5746 5745 5743 5738 5735 5734 5732 5731 5730 5728 5726 5724 5722 5720 5718 5716 5715 5714 5713 5712 5711 5709 5708 5707 5705 5704 5703
5750 5749 5750 5750 5750 5749 5747 5747 5748 5749 5749 5749 5748 5748 5747 5746 5746 5744 5743 5742 5739 5735 5734 5732 5731 5729 5727 5725 5722 5720 5719 5717 5716 5714 5713 5712 5711 5709 5708 5707 5705 5704 5703
5749 5749 5750 5751 5749 5749 5749 5748 5748 5748 5748 5748 5748 5749 5748 5746 5746 5744 5744 5743 5742 5741 5736 5734 5732 5730 5728 5726 5723 5721 5719 5718 5716 5715 5714 5713 5711 5710 5709 5707 5706 5704 5703
5750 5750 5749 5749 5749 5749 5749 5750 5749 5747 5746 5746 5748 5748 5749 5748 5746 5746 5745 5744 5742 5741 5740 5736 5733 5731 5729 5727 5725 5722 5721 5719 5717 5716 5714 5713 5712 5711 5709 5708 5706 5705 5704
5751 5750 5750 5748 5749 5749 5748 5747 5745 5745 5746 5747 5749 5749 5749 5750 5748 5748 5746 5745 5743 5742 5741 5739 5735 5733 5730 5728 5726 5724 5722 5720 5718 5717 5716 5714 5713 5712 5710 5709 5707 5706 5704
5751 5750 5751 5748 5748 5748 5747 5748 5747 5747 5747 5748 5747 5746 5749 5750 5749 5748 5747 5747 5745 5744 5742 5740 5738 5736 5733 5730 5728 5726 5724 5722 5720 5719 5717 5716 5714 5713 5711 5710 5708 5706 5705
5752 5752 5750 5750 5749 5747 5746 5747 5746 5746 5748 5748 5746 5743 5741 5744 5745 5750 5748 5746 5746 5745 5743 5742 5739 5737 5736 5734 5731 5728 5726 5724 5722 5720 5719 5717 5715 5714 5712 5710 5709 5707 5706
5754 5753 5752 5750 5749 5750 5749 5747 5747 5746 5745 5747 5749 5745 5740 5737 5743 5748 5747 5746 5745 5744 5744 5743 5741 5739 5737 5735 5734 5730 5728 5726 5724 5722 5720 5719 5717 5715 5713 5711 5709 5708 5707
5756 5754 5753 5751 5750 5751 5749 5749 5750 5748 5746 5745 5747 5747 5746 5745 5739 5739 5744 5746 5745 5744 5744 5744 5744 5741 5739 5737 5734 5732 5729 5727 5725 5723 5721 5720 5718 5716 5714 5712 5710 5709 5707
5758 5757 5755 5753 5752 5752 5751 5750 5749 5748 5749 5747 5746 5746 5745 5744 5743 5738 5735 5739 5742 5745 5745 5744 5743 5742 5740 5738 5735 5733 5730 5727 5725 5723 5722 5720 5718 5716 5714 5713 5711 5709 5708
5760 5759 5757 5754 5753 5753 5751 5750 5749 5749 5749 5748 5747 5747 5744 5743 5742 5741 5737 5737 5737 5742 5744 5743 5742 5742 5740 5738 5736 5732 5729 5727 5724 5722 5721 5719 5718 5716 5714 5713 5712 5710 5708
5762 5760 5759 5755 5754 5753 5752 5751 5750 5750 5749 5747 5747 5747 5748 5746 5746 5743 5739 5738 5738 5741 5741 5742 5742 5740 5739 5736 5733 5730 5727 5725 5723 5721 5719 5717 5716 5715 5714 5712 5711 5709 5707
5765 5763 5760 5757 5755 5754 5754 5752 5751 5750 5749 5748 5748 5747 5747 5748 5748 5745 5742 5738 5735 5737 5738 5738 5740 5739 5736 5734 5731 5728 5726 5723 5721 5719 5717 5715 5714 5713 5711 5710 5709 5708 5706
5766 5764 5761 5759 5757 5755 5754 5752 5751 5750 5749 5749 5749 5748 5746 5748 5748 5746 5744 5741 5735 5731 5732 5736 5735 5736 5733 5731 5728 5726 5724 5721 5718 5716 5714 5713 5711 5710 5708 5707 5706 5705 5703
5765 5763 5761 5759 5757 5756 5754 5752 5751 5750 5748 5748 5747 5745 5744 5747 5746 5745 5744 5742 5740 5735 5732 5734 5732 5732 5731 5729 5725 5723 5720 5718 5715 5713 5710 5708 5707 5706 5705 5704 5703 5701 5700
5764 5762 5760 5759 5757 5755 5754 5751 5751 5749 5748 5746 5745 5744 5742 5742 5743 5743 5742 5741 5738 5735 5730 5730 5731 5729 5725 5723 5721 5719 5718 5715 5712 5709 5706 5704 5702 5701 5700 5699 5698 5696 5695
5763 5762 5760 5758 5757 5755 5753 5750 5749 5748 5746 5744 5743 5741 5740 5740 5739 5739 5739 5737 5736 5733 5729 5724 5724 5723 5720 5718 5716 5715 5714 5712 5709 5704 5701 5699 5697 5695 5694 5693 5692 5690 5689
5762 5761 5759 5757 5755 5753 5751 5749 5748 5746 5744 5742 5740 5738 5738 5737 5736 5736 5735 5734 5734 5733 5728 5723 5720 5718 5716 5714 5711 5710 5709 5705 5704 5701 5697 5693 5691 5689 5687 5686 5684 5683 5681
5760 5758 5756 5754 5752 5751 5749 5748 5746 5744 5741 5739 5737 5736 5735 5734 5733 5732 5732 5730 5729 5727 5724 5720 5717 5715 5711 5709 5706 5704 5702 5700 5697 5696 5692 5689 5686 5683 5681 5679 5676 5675 5673
5757 5755 5753 5751 5749 5748 5747 5745 5743 5741 5738 5735 5733 5732 5730 5728 5726 5726 5727 5725 5724 5722 5719 5717 5713 5710 5707 5703 5701 5700 5696 5693 5690 5688 5687 5685 5682 5679 5675 5671 5669 5667 5665
5752 5750 5748 5747 5745 5744 5741 5738 5738 5737 5734 5731 5728 5727 5726 5723 5720 5718 5716 5715 5715 5714 5713 5710 5707 5703 5699 5698 5696 5694 5690 5687 5683 5682 5679 5678 5677 5673 5669 5665 5660 5658 5656
5747 5745 5744 5743 5740 5737 5734 5733 5731 5731 5730 5727 5725 5723 5722 5720 5717 5716 5712 5710 5707 5705 5703 5703 5700 5697 5695 5692 5689 5687 5683 5680 5676 5674 5672 5669 5668 5664 5661 5656 5652 5649 5646
5742 5740 5738 5737 5735 5732 5728 5727 5725 5725 5724 5722 5720 5718 5715 5713 5711 5710 5709 5706 5703 5700 5698 5696 5693 5690 5688 5685 5683 5681 5677 5674 5671 5667 5664 5661 5658 5655 5653 5648 5643 5640 5637
5736 5735 5734 5731 5729 5725 5722 5721 5720 5721 5719 5716 5714 5711 5709 5706 5702 5701 5701 5699 5696 5692 5688 5685 5682 5680 5677 5675 5674 5674 5671 5669 5665 5661 5657 5653 5650 5647 5645 5641 5635 5631 5628
5732 5730 5728 5726 5724 5720 5716 5716 5715 5717 5714 5711 5708 5704 5700 5698 5694 5693 5694 5692 5689 5686 5684 5681 5676 5673 5671 5668 5666 5664 5664 5662 5659 5654 5649 5645 5643 5639 5636 5633 5628 5623 5619